Flag for Micronesia Weather past 2 weeks in Colonia, Yap, Micronesia

Now
83 °F

Broken clouds.


Feels Like: 94 °F
Forecast: 78 / 86 °F
Wind: 3 mph from North

Location: Yap Island

Current Time: Sep 21, 2014 at 6:35:33 PM

Latest Report: Sep 21, 2014 at 5:51 PM


Visibility: 12 mi

Pressure: 29.75 "Hg

Humidity: 84%

Dew point: 78 °F

Location of ColoniaLocation

Historic Weather in Colonia — Graph

°F

Colonia temperature yesterday

Maximum temperature yesterday: 85 °F (at 3:54 PM)
Minimum temperature yesterday: 78 °F (at 10:50 AM)
Average temperature yesterday: 82 °F

Past Weeks' High & Low Weather Summary

 TemperatureHumidityPressure
High89 °F (Sep 9, 2:50 PM)96% (Sep 12, 5:50 AM)29.93 "Hg (Sep 12, 5:50 AM)
Low76 °F (Sep 7, 3:50 AM)70% (Sep 9, 12:50 PM)29.65 "Hg (Sep 16, 3:50 PM)
Average82 °F84%29.81 "Hg
* Reported Sep 6 4:55 PM — Sep 21 4:50 PM, Colonia, Weather by CustomWeather, © 2014

Note: Actual official high and low records may vary slightly from our data, if they occured in-between our weather recording intervals... More about our weather records

Advertising

Colonia weather history for previous 24 hours

 ConditionsComfort  
Time TempWeatherWind HumidityBarometerVisibility
4:50 PM
Sep 21
86 °FBroken clouds.5 mph80%29.75 "Hg12 mi
3:54 PM85 °FBroken clouds.6 mph79%29.73 "Hg12 mi
2:54 PM87 °FPartly sunny.7 mph78%29.74 "Hg12 mi
1:55 PM87 °FBroken clouds.8 mph78%29.76 "Hg12 mi
11:54 AM87 °FBroken clouds.8 mph81%29.81 "Hg12 mi
10:52 AM84 °FBroken clouds.5 mph86%29.81 "Hg12 mi
9:54 AM80 °FPartly sunny.5 mph94%29.81 "Hg12 mi
8:52 AM78 °FOvercast.5 mph94%29.80 "Hg12 mi
6:53 AM77 °FOvercast.6 mph94%29.80 "Hg12 mi
5:52 AM77 °FSprinkles. Overcast.8 mph93%29.78 "Hg8 mi
4:53 AM76 °FSprinkles. Overcast.8 mph94%29.78 "Hg8 mi
3:54 AM81 °FPartly cloudy.9 mph87%29.75 "Hg12 mi
10:50 PM
Sep 20
81 °FPartly cloudy.9 mph84%29.82 "Hg12 mi
9:53 PM82 °FPartly cloudy.8 mph85%29.81 "Hg12 mi
8:50 PM81 °FPartly cloudy.9 mph86%29.80 "Hg12 mi
7:50 PM81 °FPartly cloudy.8 mph86%29.78 "Hg12 mi
6:50 PM82 °FBroken clouds.8 mph84%29.75 "Hg12 mi
Weather by CustomWeather, © 2014

See weather overviewHow to use our weather pages